CSN6465 ZBAA-ZSJN

Flight info

Callsign CSN6465
Flight time 0h 43m
Altitude 33100
Route ELKUR W40 PANKI STAR
Aircraft A333/H-SDE3FGHIRWY/LB1

Departure

Time 2026-04-17 09:40
Airport Beijing Capital International Airport (ZBAA)

Arrival

Time 2026-04-17 10:23
Airport Jinan Yaoqiang International Airport (ZSJN)
Time Latitude Longitude Altitude Speed Heading
2026-04-17 08:56 40.07959 116.60967 123 ft 0 kts 143°
2026-04-17 09:25 40.07960 116.60966 123 ft 1 kts 144°
2026-04-17 09:25 40.07971 116.60953 123 ft 2 kts 133°
2026-04-17 09:26 40.07981 116.60938 123 ft 2 kts 123°
2026-04-17 09:26 40.07988 116.60922 123 ft 2 kts 115°
2026-04-17 09:26 40.07994 116.60904 123 ft 2 kts 106°
2026-04-17 09:26 40.07997 116.60885 123 ft 2 kts 97°
2026-04-17 09:27 40.07998 116.60866 123 ft 2 kts 88°
2026-04-17 09:27 40.07997 116.60847 123 ft 2 kts 79°
2026-04-17 09:27 40.07993 116.60828 123 ft 2 kts 70°
2026-04-17 09:27 40.07987 116.60809 123 ft 2 kts 61°
2026-04-17 09:28 40.07980 116.60793 123 ft 2 kts 52°
2026-04-17 09:28 40.07970 116.60778 123 ft 2 kts 52°
2026-04-17 09:28 40.07961 116.60762 123 ft 2 kts 53°
2026-04-17 09:28 40.07954 116.60751 123 ft 0 kts 53°
2026-04-17 09:33 40.07961 116.60761 123 ft 7 kts 53°
2026-04-17 09:33 40.08007 116.60841 123 ft 12 kts 53°
2026-04-17 09:34 40.08063 116.60934 123 ft 13 kts 52°
2026-04-17 09:34 40.08082 116.61036 123 ft 10 kts 117°
2026-04-17 09:34 40.08012 116.61078 123 ft 11 kts 172°
2026-04-17 09:34 40.07909 116.61095 123 ft 21 kts 172°
2026-04-17 09:35 40.07748 116.61121 123 ft 23 kts 173°
2026-04-17 09:35 40.07589 116.61146 123 ft 23 kts 173°
2026-04-17 09:35 40.07428 116.61171 123 ft 22 kts 173°
2026-04-17 09:35 40.07270 116.61196 123 ft 22 kts 174°
2026-04-17 09:36 40.07114 116.61219 123 ft 22 kts 171°
2026-04-17 09:36 40.06965 116.61243 123 ft 19 kts 173°
2026-04-17 09:36 40.06884 116.61276 123 ft 9 kts 124°
2026-04-17 09:36 40.06858 116.61355 123 ft 9 kts 133°
2026-04-17 09:37 40.06790 116.61388 123 ft 12 kts 173°
2026-04-17 09:37 40.06690 116.61405 123 ft 18 kts 173°
2026-04-17 09:37 40.06524 116.61430 123 ft 25 kts 173°
2026-04-17 09:37 40.06350 116.61459 123 ft 25 kts 174°
2026-04-17 09:38 40.06173 116.61485 123 ft 24 kts 172°
2026-04-17 09:38 40.06009 116.61511 123 ft 19 kts 174°
2026-04-17 09:38 40.05939 116.61577 123 ft 12 kts 95°
2026-04-17 09:38 40.05939 116.61587 122 ft 0 kts 85°
2026-04-17 09:39 40.05944 116.61661 123 ft 13 kts 84°
2026-04-17 09:39 40.05996 116.61750 123 ft 14 kts
2026-04-17 09:39 40.06030 116.61745 123 ft 0 kts 350°
2026-04-17 09:39 40.06098 116.61730 123 ft 38 kts 351°
2026-04-17 09:40 40.06715 116.61639 123 ft 138 kts 353°
2026-04-17 09:40 40.07927 116.61448 348 ft 201 kts 352°
2026-04-17 09:40 40.09453 116.61248 976 ft 240 kts 355°
2026-04-17 09:40 40.11223 116.61208 1617 ft 263 kts
2026-04-17 09:41 40.13056 116.61684 2290 ft 281 kts 20°
2026-04-17 09:41 40.14808 116.62921 2944 ft 283 kts 38°
2026-04-17 09:41 40.16102 116.64752 2970 ft 274 kts 60°
2026-04-17 09:41 40.16770 116.67010 2949 ft 268 kts 82°
2026-04-17 09:42 40.16993 116.69441 2987 ft 266 kts 85°
2026-04-17 09:42 40.17201 116.71832 3260 ft 267 kts 85°
2026-04-17 09:42 40.17425 116.74266 3552 ft 273 kts 85°
2026-04-17 09:42 40.17698 116.76791 4296 ft 285 kts 83°
2026-04-17 09:43 40.17943 116.79315 5208 ft 289 kts 84°
2026-04-17 09:43 40.18179 116.81954 5881 ft 291 kts 84°
2026-04-17 09:43 40.18412 116.84618 6492 ft 303 kts 84°
2026-04-17 09:43 40.18640 116.87263 7700 ft 292 kts 83°
2026-04-17 09:44 40.18867 116.89890 8557 ft 296 kts 82°
2026-04-17 09:44 40.19107 116.92641 9043 ft 314 kts 82°
2026-04-17 09:44 40.19356 116.95531 9460 ft 333 kts 82°
2026-04-17 09:44 40.19577 116.98638 9860 ft 353 kts 89°
2026-04-17 09:45 40.19118 117.01832 10212 ft 373 kts 111°
2026-04-17 09:45 40.17750 117.04797 10553 ft 391 kts 131°
2026-04-17 09:45 40.15622 117.07094 10792 ft 406 kts 152°
2026-04-17 09:45 40.13003 117.08521 11202 ft 414 kts 165°
2026-04-17 09:46 40.10250 117.09530 11273 ft 395 kts 173°
2026-04-17 09:46 40.07645 117.09507 11274 ft 364 kts 194°
2026-04-17 09:46 40.05328 117.08529 11394 ft 338 kts 202°
2026-04-17 09:46 40.03042 117.08185 11474 ft 330 kts 179°
2026-04-17 09:47 40.00827 117.08643 11592 ft 316 kts 176°
2026-04-17 09:47 39.98582 117.09034 11841 ft 338 kts 176°
2026-04-17 09:47 39.96170 117.09446 12293 ft 358 kts 176°
2026-04-17 09:47 39.93629 117.09871 12673 ft 378 kts 176°
2026-04-17 09:48 39.90969 117.10318 13025 ft 398 kts 175°
2026-04-17 09:48 39.88138 117.10791 13384 ft 415 kts 175°
2026-04-17 09:48 39.85277 117.11272 14126 ft 420 kts 175°
2026-04-17 09:48 39.82337 117.11763 14879 ft 425 kts 175°
2026-04-17 09:49 39.79421 117.12249 15574 ft 431 kts 175°
2026-04-17 09:49 39.76440 117.12744 16239 ft 436 kts 175°
2026-04-17 09:49 39.73410 117.13249 16926 ft 441 kts 174°
2026-04-17 09:49 39.70367 117.13756 17629 ft 445 kts 175°
2026-04-17 09:50 39.67255 117.14273 18278 ft 450 kts 174°
2026-04-17 09:50 39.64162 117.14786 18899 ft 455 kts 174°
2026-04-17 09:50 39.60984 117.15313 19549 ft 459 kts 174°
2026-04-17 09:50 39.57819 117.15839 20089 ft 465 kts 174°
2026-04-17 09:51 39.54614 117.16370 20578 ft 464 kts 174°
2026-04-17 09:51 39.51370 117.16906 20539 ft 475 kts 174°
2026-04-17 09:51 39.48107 117.17127 20536 ft 474 kts 185°
2026-04-17 09:51 39.44904 117.16376 20486 ft 452 kts 202°
2026-04-17 09:52 39.42206 117.14685 20591 ft 429 kts 213°
2026-04-17 09:52 39.39485 117.12845 20595 ft 450 kts 210°
2026-04-17 09:52 39.36621 117.11015 20618 ft 467 kts 209°
2026-04-17 09:52 39.33700 117.09194 20818 ft 462 kts 209°
2026-04-17 09:53 39.30865 117.07443 20488 ft 445 kts 210°
2026-04-17 09:53 39.28149 117.05761 20527 ft 421 kts 209°
2026-04-17 09:53 39.25586 117.04177 20606 ft 404 kts 210°
2026-04-17 09:53 39.22987 117.02563 20560 ft 424 kts 209°
2026-04-17 09:54 39.20280 117.00893 20587 ft 444 kts 209°
2026-04-17 09:54 39.17424 116.99134 20591 ft 462 kts 209°
2026-04-17 09:54 39.14512 116.97342 20561 ft 462 kts 209°
2026-04-17 09:54 39.11682 116.95607 20479 ft 446 kts 209°
2026-04-17 09:55 39.08873 116.93877 20656 ft 452 kts 209°
2026-04-17 09:55 39.06032 116.92133 20533 ft 450 kts 209°
2026-04-17 09:55 39.03212 116.90405 20559 ft 447 kts 209°
2026-04-17 09:55 39.00410 116.88689 20580 ft 447 kts 209°
2026-04-17 09:56 38.97602 116.86969 20562 ft 446 kts 209°
2026-04-17 09:56 38.94809 116.85262 20566 ft 446 kts 209°
2026-04-17 09:56 38.92001 116.83545 20568 ft 446 kts 209°
2026-04-17 09:56 38.89218 116.81847 20569 ft 447 kts 209°
2026-04-17 09:57 38.86413 116.80136 20562 ft 446 kts 209°
2026-04-17 09:57 38.83618 116.78433 20564 ft 446 kts 209°
2026-04-17 09:57 38.80809 116.76723 20560 ft 447 kts 209°
2026-04-17 09:57 38.77985 116.75005 20567 ft 447 kts 209°
2026-04-17 09:58 38.75199 116.73312 20560 ft 447 kts 209°
2026-04-17 09:58 38.72382 116.71600 20569 ft 447 kts 209°
2026-04-17 09:58 38.69575 116.69898 20560 ft 447 kts 209°
2026-04-17 09:58 38.66789 116.68209 20570 ft 446 kts 209°
2026-04-17 09:59 38.63899 116.66691 20543 ft 450 kts 199°
2026-04-17 09:59 38.60817 116.66099 20557 ft 453 kts 187°
2026-04-17 09:59 38.57674 116.65758 20583 ft 455 kts 187°
2026-04-17 09:59 38.54488 116.65402 20567 ft 455 kts 187°
2026-04-17 10:00 38.51369 116.65046 20574 ft 454 kts 187°
2026-04-17 10:00 38.48224 116.64686 20580 ft 454 kts 187°
2026-04-17 10:00 38.45071 116.64325 20577 ft 456 kts 187°
2026-04-17 10:00 38.41887 116.63959 20575 ft 456 kts 187°
2026-04-17 10:01 38.38737 116.63599 20579 ft 456 kts 187°
2026-04-17 10:01 38.35600 116.63239 20576 ft 454 kts 187°
2026-04-17 10:01 38.32438 116.62878 20582 ft 454 kts 188°
2026-04-17 10:01 38.29300 116.62714 20563 ft 458 kts 178°
2026-04-17 10:02 38.26183 116.63528 20567 ft 460 kts 164°
2026-04-17 10:02 38.23116 116.64705 20593 ft 460 kts 165°
2026-04-17 10:02 38.20040 116.65862 20578 ft 460 kts 165°
2026-04-17 10:02 38.16978 116.67004 20580 ft 459 kts 165°
2026-04-17 10:03 38.13889 116.68151 20587 ft 459 kts 165°
2026-04-17 10:03 38.10857 116.69279 20580 ft 461 kts 165°
2026-04-17 10:03 38.07791 116.70449 20582 ft 460 kts 164°
2026-04-17 10:03 38.04700 116.71629 20584 ft 461 kts 164°
2026-04-17 10:04 38.01629 116.72798 20585 ft 459 kts 164°
2026-04-17 10:04 37.98578 116.73961 20584 ft 460 kts 164°
2026-04-17 10:04 37.95519 116.75124 20587 ft 460 kts 164°
2026-04-17 10:04 37.92452 116.76290 20592 ft 460 kts 164°
2026-04-17 10:05 37.89395 116.77451 20476 ft 450 kts 164°
2026-04-17 10:05 37.86367 116.78601 19941 ft 460 kts 164°
2026-04-17 10:05 37.83347 116.79748 19460 ft 449 kts 164°
2026-04-17 10:05 37.80427 116.80855 18991 ft 436 kts 164°
2026-04-17 10:06 37.77535 116.81950 18514 ft 425 kts 164°
2026-04-17 10:06 37.74770 116.82995 18048 ft 415 kts 164°
2026-04-17 10:06 37.72010 116.84038 17575 ft 406 kts 164°
2026-04-17 10:06 37.69360 116.85037 17115 ft 398 kts 164°
2026-04-17 10:07 37.66732 116.86028 16650 ft 390 kts 164°
2026-04-17 10:07 37.64168 116.86996 16191 ft 384 kts 164°
2026-04-17 10:07 37.61615 116.87957 15732 ft 377 kts 164°
2026-04-17 10:07 37.59126 116.88895 15276 ft 372 kts 164°
2026-04-17 10:08 37.56659 116.89822 14821 ft 367 kts 163°
2026-04-17 10:08 37.54239 116.90732 14369 ft 362 kts 163°
2026-04-17 10:08 37.51835 116.91635 13918 ft 358 kts 163°
2026-04-17 10:08 37.49483 116.92518 13469 ft 354 kts 163°
2026-04-17 10:09 37.47113 116.93407 13017 ft 350 kts 163°
2026-04-17 10:09 37.44799 116.94276 12572 ft 347 kts 163°
2026-04-17 10:09 37.42497 116.95139 12127 ft 344 kts 163°
2026-04-17 10:09 37.40229 116.95988 11687 ft 341 kts 163°
2026-04-17 10:10 37.37982 116.96828 11444 ft 332 kts 163°
2026-04-17 10:10 37.35835 116.97632 10876 ft 317 kts 163°
2026-04-17 10:10 37.33770 116.98404 10409 ft 301 kts 163°
2026-04-17 10:11 37.30347 117.00786 9515 ft 278 kts 123°
2026-04-17 10:11 37.29550 117.02930 9097 ft 266 kts 98°
2026-04-17 10:11 37.29317 117.05182 8672 ft 257 kts 93°
2026-04-17 10:11 37.29151 117.07367 8258 ft 250 kts 92°
2026-04-17 10:12 37.29012 117.09517 7681 ft 248 kts 92°
2026-04-17 10:12 37.28879 117.11638 7112 ft 240 kts 92°
2026-04-17 10:12 37.28753 117.13683 6549 ft 236 kts 92°
2026-04-17 10:12 37.28629 117.15723 5989 ft 233 kts 92°
2026-04-17 10:13 37.28508 117.17728 5430 ft 230 kts 93°
2026-04-17 10:13 37.28194 117.19666 4855 ft 229 kts 117°
2026-04-17 10:13 37.27157 117.21113 4319 ft 223 kts 151°
2026-04-17 10:13 37.25717 117.21615 3796 ft 216 kts 181°
2026-04-17 10:14 37.24231 117.21597 3272 ft 213 kts 181°
2026-04-17 10:14 37.22743 117.21603 2772 ft 216 kts 181°
2026-04-17 10:14 37.21217 117.21605 2252 ft 224 kts 181°
2026-04-17 10:14 37.19666 117.21606 1950 ft 220 kts 181°
2026-04-17 10:15 37.18187 117.21598 1991 ft 211 kts 182°
2026-04-17 10:15 37.16773 117.21599 1954 ft 186 kts 181°
2026-04-17 10:15 37.15587 117.21604 2034 ft 155 kts 182°
2026-04-17 10:15 37.14575 117.21608 1940 ft 139 kts 182°
2026-04-17 10:16 37.13636 117.21608 1920 ft 134 kts 182°
2026-04-17 10:16 37.12703 117.21607 1947 ft 135 kts 182°
2026-04-17 10:16 37.11756 117.21606 1974 ft 135 kts 182°
2026-04-17 10:16 37.10806 117.21606 1996 ft 136 kts 182°
2026-04-17 10:17 37.09851 117.21606 2015 ft 136 kts 182°
2026-04-17 10:17 37.08902 117.21605 2030 ft 136 kts 182°
2026-04-17 10:17 37.07948 117.21604 2040 ft 136 kts 182°
2026-04-17 10:17 37.07002 117.21604 2049 ft 136 kts 182°
2026-04-17 10:18 37.06058 117.21603 2054 ft 136 kts 182°
2026-04-17 10:18 37.05107 117.21603 2056 ft 136 kts 182°
2026-04-17 10:18 37.04163 117.21603 2057 ft 135 kts 182°
2026-04-17 10:18 37.03230 117.21603 2059 ft 134 kts 182°
2026-04-17 10:19 37.02293 117.21602 2062 ft 134 kts 182°
2026-04-17 10:19 37.01353 117.21601 2065 ft 134 kts 182°
2026-04-17 10:19 37.00425 117.21600 2068 ft 135 kts 182°
2026-04-17 10:19 36.99486 117.21598 2072 ft 135 kts 182°
2026-04-17 10:20 36.98542 117.21601 2041 ft 136 kts 182°
2026-04-17 10:20 36.97588 117.21601 1938 ft 137 kts 182°
2026-04-17 10:20 36.96628 117.21600 1801 ft 137 kts 183°
2026-04-17 10:20 36.95691 117.21598 1646 ft 136 kts 182°
2026-04-17 10:21 36.94740 117.21600 1483 ft 138 kts 182°
2026-04-17 10:21 36.93669 117.21581 1383 ft 161 kts 183°
2026-04-17 10:21 36.92621 117.21574 1188 ft 142 kts 181°
2026-04-17 10:21 36.92328 117.21584 1104 ft 139 kts 180°
2026-04-17 10:22 36.91370 117.21603 756 ft 136 kts 183°
2026-04-17 10:22 36.90427 117.21571 609 ft 136 kts 183°
2026-04-17 10:22 36.89498 117.21596 523 ft 129 kts 176°
2026-04-17 10:22 36.88589 117.21592 358 ft 132 kts 181°
2026-04-17 10:23 36.87697 117.21587 184 ft 126 kts 180°
2026-04-17 10:23 36.86864 117.21594 88 ft 89 kts 179°
2026-04-17 10:23 36.86544 117.21596 88 ft 38 kts 180°
2026-04-17 10:23 36.86276 117.21596 88 ft 37 kts 178°
2026-04-17 10:24 36.86025 117.21595 88 ft 35 kts 180°
2026-04-17 10:24 36.85783 117.21594 88 ft 30 kts 179°
2026-04-17 10:24 36.85580 117.21563 88 ft 29 kts 198°
2026-04-17 10:24 36.85399 117.21451 88 ft 29 kts 209°
2026-04-17 10:25 36.85212 117.21374 88 ft 28 kts 181°
2026-04-17 10:25 36.85013 117.21374 88 ft 28 kts 180°
2026-04-17 10:25 36.84868 117.21332 88 ft 16 kts 239°
2026-04-17 10:25 36.84845 117.21189 88 ft 17 kts 268°
2026-04-17 10:26 36.84879 117.21053 88 ft 16 kts 298°
2026-04-17 10:26 36.84917 117.20940 88 ft 11 kts 278°
2026-04-17 10:26 36.84925 117.20887 88 ft 1 kts 281°
2026-04-17 10:26 36.84928 117.20868 88 ft 0 kts 281°